Flag for Canada Weather past 2 weeks in Rothesay, New Brunswick, Canada

Now
30 °F

Light snow. Mostly cloudy.


Feels Like: 19 °F
Forecast: 28 / 34 °F
Wind: 15 mph from Northwest

Location: Saint John

Current Time: Dec 18, 2014 at 3:58:34 PM

Latest Report: Dec 18, 2014 at 3:00 PM


Visibility: 2 mi

Pressure: 29.43 "Hg

Humidity: 93%

Dew point: 28 °F

Location of RothesayLocation

Historic Weather in Rothesay — Graph

°F

Rothesay temperature yesterday

Maximum temperature yesterday: 37 °F (at 11:00 AM)
Minimum temperature yesterday: 28 °F (at 6:00 AM)
Average temperature yesterday: 33 °F

Past Weeks' High & Low Weather Summary

 TemperatureHumidityPressure
High50 °F (Dec 3, 3:00 PM)100% (Dec 3, 2:00 PM)30.84 "Hg (Dec 3, 2:00 PM)
Low1 °F (Dec 8, 5:00 AM)27% (Dec 5, 3:00 PM)29.39 "Hg (Dec 18, 7:00 AM)
Average32 °F85%30.07 "Hg
* Reported Dec 3 2:00 PM — Dec 18 2:00 PM, Rothesay, Weather by CustomWeather, © 2014

Note: Actual official high and low records may vary slightly from our data, if they occured in-between our weather recording intervals... More about our weather records

Advertising

Rothesay weather history for previous 24 hours

 ConditionsComfort  
Time TempWeatherWind HumidityBarometerVisibility
2:00 PM
Dec 18
32 °FLight snow. Mostly cloudy.10 mph87%29.42 "Hg4 mi
1:00 PM32 °FLight snow. Mostly cloudy.17 mph93%29.42 "Hg2 mi
12:00 PM32 °FLight snow. Mostly cloudy.15 mph93%29.43 "Hg2 mi
11:00 AM32 °FLight snow. Mostly cloudy.12 mph93%29.44 "Hg1 mi
10:00 AM32 °FLight snow. Mostly cloudy.12 mph100%29.43 "Hg1 mi
9:00 AM32 °FLight snow. Mostly cloudy.13 mph100%29.41 "Hg1 mi
8:49 AM32 °FLight snow. Mostly cloudy.12 mph100%29.41 "Hg1 mi
8:00 AM32 °FLight snow. More clouds than sun.12 mph100%29.41 "Hg1 mi
7:00 AM32 °FLight snow. Mostly cloudy.12 mph100%29.39 "Hg2 mi
6:00 AM32 °FLight rain. Ice fog.12 mph100%29.40 "Hg2 mi
5:00 AM34 °FLight rain. Fog.14 mph93%29.40 "Hg2 mi
4:00 AM34 °FLight rain. Fog.12 mph93%29.42 "Hg3 mi
3:00 AM34 °FLight rain. Fog.13 mph93%29.45 "Hg3 mi
2:00 AM32 °FLight rain. Ice fog.15 mph100%29.47 "Hg3 mi
1:02 AM32 °FLight rain. Ice fog.15 mph100%29.53 "Hg3 mi
12:00 AM34 °FLight rain. Fog.13 mph93%29.56 "Hg2 mi
11:00 PM
Dec 17
34 °FLight rain. Fog.10 mph93%29.61 "Hg2 mi
10:00 PM34 °FLight rain. Fog.14 mph100%29.66 "Hg3 mi
9:00 PM34 °FLight rain. Fog.12 mph93%29.70 "Hg3 mi
8:00 PM32 °FLight rain. Ice fog.9 mph100%29.75 "Hg4 mi
7:00 PM34 °FLight rain. Fog.9 mph93%29.78 "Hg4 mi
6:00 PM34 °FLight rain. Mostly cloudy.16 mph93%29.80 "Hg8 mi
5:00 PM34 °FLight rain. Mostly cloudy.20 mph87%29.82 "Hg15 mi
4:51 PM34 °FLight rain. Mostly cloudy.17 mph81%29.82 "Hg15 mi
4:00 PM34 °FCloudy.16 mph81%29.84 "Hg15 mi
3:00 PM34 °FMostly cloudy.18 mph81%29.87 "Hg15 mi
Weather by CustomWeather, © 2014

See weather overviewHow to use our weather pages